| time (UTC) | temp F | wind direction | speed MPH | gust MPH | rain 1hr in | rain 24hr in | rain mn in | humidity % | barometer mb |
| 20260906212055 | 77 | 279 | 5.0 | 11.0 | 0.00 | 0.00 | 0.00 | 80 | 1013.7 |
| 20260906211555 | 77 | 283 | 4.0 | 12.0 | 0.00 | 0.00 | 0.00 | 80 | 1013.7 |
| 20260906211054 | 76 | 308 | 5.0 | 11.0 | 0.00 | 0.00 | 0.00 | 80 | 1013.8 |
| 20260906210555 | 77 | 269 | 5.0 | 13.0 | 0.00 | 0.00 | 0.00 | 80 | 1013.8 |
| 20260906210109 | 77 | 293 | 5.0 | 13.0 | 0.00 | 0.00 | 0.00 | 81 | 1013.7 |
| 20260906205553 | 76 | 281 | 3.0 | 10.0 | 0.00 | 0.00 | 0.00 | 81 | 1013.9 |
| 20260906205053 | 76 | 260 | 4.0 | 10.0 | 0.00 | 0.00 | 0.00 | 81 | 1014.0 |
| 20260906204552 | 76 | 302 | 4.0 | 10.0 | 0.00 | 0.00 | 0.00 | 82 | 1014.0 |
| 20260906204055 | 76 | 310 | 5.0 | 10.0 | 0.00 | 0.00 | 0.00 | 82 | 1014.1 |
| 20260906203552 | 76 | 300 | 4.0 | 10.0 | 0.00 | 0.00 | 0.00 | 82 | 1014.0 |
| 20260906203051 | 76 | 299 | 2.0 | 9.0 | 0.00 | 0.00 | 0.00 | 82 | 1014.1 |
| 20260906202550 | 76 | 295 | 6.0 | 11.0 | 0.00 | 0.00 | 0.00 | 82 | 1014.3 |
| 20260906202051 | 76 | 287 | 6.0 | 12.0 | 0.00 | 0.00 | 0.00 | 82 | 1014.3 |
| 20260906201625 | 76 | 311 | 3.0 | 11.0 | 0.00 | 0.00 | 0.00 | 82 | 1014.4 |
| 20260906201049 | 76 | 279 | 7.0 | 12.0 | 0.00 | 0.00 | 0.00 | 82 | 1014.3 |
| 20260906200549 | 76 | 318 | 4.0 | 12.0 | 0.00 | 0.00 | 0.00 | 83 | 1014.4 |
| 20260906200049 | 76 | 314 | 5.0 | 12.0 | 0.00 | 0.00 | 0.00 | 83 | 1014.4 |
| 20260906195548 | 76 | 275 | 6.0 | 12.0 | 0.00 | 0.00 | 0.00 | 82 | 1014.4 |
| 20260906195048 | 76 | 279 | 6.0 | 12.0 | 0.00 | 0.00 | 0.00 | 82 | 1014.4 |
| 20260906194553 | 76 | 297 | 5.0 | 12.0 | 0.00 | 0.00 | 0.00 | 82 | 1014.4 |
| 20260906194046 | 76 | 298 | 5.0 | 11.0 | 0.00 | 0.00 | 0.00 | 82 | 1014.4 |
| 20260906193544 | 76 | 301 | 4.0 | 12.0 | 0.00 | 0.00 | 0.00 | 82 | 1014.4 |
| 20260906193043 | 76 | 314 | 6.0 | 12.0 | 0.00 | 0.00 | 0.00 | 82 | 1014.5 |
| 20260906192542 | 75 | 271 | 4.0 | 10.0 | 0.00 | 0.00 | 0.00 | 82 | 1014.6 |
| 20260906192040 | 75 | 280 | 2.0 | 9.0 | 0.00 | 0.00 | 0.00 | 82 | 1014.5 |
| 20260906191555 | 75 | 287 | 3.0 | 9.0 | 0.00 | 0.00 | 0.00 | 81 | 1014.7 |
| 20260906191039 | 75 | 254 | 1.0 | 10.0 | 0.00 | 0.00 | 0.00 | 82 | 1014.9 |
| 20260906190536 | 74 | 275 | 2.0 | 10.0 | 0.00 | 0.00 | 0.00 | 81 | 1014.8 |
| 20260906190035 | 74 | 311 | 4.0 | 10.0 | 0.00 | 0.00 | 0.00 | 81 | 1014.9 |
| 20260906185533 | 73 | 271 | 1.0 | 9.0 | 0.00 | 0.00 | 0.00 | 82 | 1014.9 |
| 20260906185032 | 73 | 301 | 2.0 | 10.0 | 0.00 | 0.00 | 0.00 | 81 | 1015.0 |
| 20260906184542 | 73 | 318 | 5.0 | 11.0 | 0.00 | 0.00 | 0.00 | 81 | 1015.1 |
| 20260906184031 | 73 | 269 | 4.0 | 11.0 | 0.00 | 0.00 | 0.00 | 81 | 1015.1 |
| 20260906183531 | 73 | 285 | 4.0 | 11.0 | 0.00 | 0.00 | 0.00 | 81 | 1015.0 |
| 20260906183034 | 73 | 308 | 6.0 | 11.0 | 0.00 | 0.00 | 0.00 | 81 | 1015.1 |
| 20260906182530 | 73 | 307 | 5.0 | 13.0 | 0.00 | 0.00 | 0.00 | 81 | 1015.1 |
| 20260906182027 | 73 | 289 | 5.0 | 11.0 | 0.00 | 0.00 | 0.00 | 81 | 1015.2 |
| 20260906181548 | 72 | 308 | 5.0 | 10.0 | 0.00 | 0.00 | 0.00 | 81 | 1015.0 |
| 20260906181024 | 72 | 278 | 6.0 | 11.0 | 0.00 | 0.00 | 0.00 | 81 | 1015.0 |
| 20260906180522 | 72 | 311 | 5.0 | 12.0 | 0.00 | 0.00 | 0.00 | 81 | 1015.0 |
| 20260906180009 | 72 | 269 | 6.0 | 12.0 | 0.00 | 0.00 | 0.00 | 81 | 1015.0 |
| 20260906175508 | 72 | 315 | 6.0 | 10.0 | 0.00 | 0.00 | 0.00 | 81 | 1015.1 |
| 20260906175007 | 72 | 282 | 5.0 | 11.0 | 0.00 | 0.00 | 0.00 | 81 | 1015.0 |
| 20260906174554 | 72 | 284 | 6.0 | 11.0 | 0.00 | 0.00 | 0.00 | 81 | 1014.8 |
| 20260906174051 | 72 | 271 | 5.0 | 11.0 | 0.00 | 0.00 | 0.00 | 80 | 1014.8 |
| 20260906173549 | 72 | 298 | 6.0 | 11.0 | 0.00 | 0.00 | 0.00 | 80 | 1014.7 |
| 20260906173048 | 72 | 269 | 4.0 | 11.0 | 0.00 | 0.00 | 0.00 | 80 | 1014.8 |
| 20260906172547 | 72 | 270 | 5.0 | 10.0 | 0.00 | 0.00 | 0.00 | 80 | 1014.6 |
| 20260906172045 | 72 | 258 | 1.0 | 6.0 | 0.00 | 0.00 | 0.00 | 80 | 1014.5 |
| 20260906171544 | 71 | 287 | 2.0 | 6.0 | 0.00 | 0.00 | 0.00 | 80 | 1014.6 |
| 20260906171042 | 71 | 292 | 2.0 | 10.0 | 0.00 | 0.00 | 0.00 | 79 | 1014.5 |
| 20260906170541 | 71 | 274 | 2.0 | 10.0 | 0.00 | 0.00 | 0.00 | 79 | 1014.5 |
| 20260906170039 | 70 | 200 | 2.0 | 8.0 | 0.00 | 0.00 | 0.00 | 79 | 1014.5 |
| 20260906165538 | 70 | 282 | 2.0 | 8.0 | 0.00 | 0.00 | 0.00 | 79 | 1014.5 |
| 20260906165036 | 69 | 244 | 0.0 | 4.0 | 0.00 | 0.00 | 0.00 | 78 | 1014.4 |
| 20260906164535 | 69 | 288 | 1.0 | 4.0 | 0.00 | 0.00 | 0.00 | 78 | 1014.2 |
| 20260906164034 | 68 | 308 | 0.0 | 4.0 | 0.00 | 0.00 | 0.00 | 78 | 1014.2 |
| 20260906163532 | 68 | 265 | 0.0 | 4.0 | 0.00 | 0.00 | 0.00 | 78 | 1014.2 |
| 20260906163033 | 68 | 273 | 2.0 | 5.0 | 0.00 | 0.00 | 0.00 | 78 | 1014.1 |
| 20260906162530 | 67 | 274 | 1.0 | 5.0 | 0.00 | 0.00 | 0.00 | 78 | 1014.2 |
| 20260906162029 | 67 | 277 | 1.0 | 5.0 | 0.00 | 0.00 | 0.00 | 77 | 1014.1 |
| 20260906161530 | 66 | 322 | 0.0 | 3.0 | 0.00 | 0.00 | 0.00 | 77 | 1014.0 |
| 20260906161029 | 66 | 326 | 0.0 | 4.0 | 0.00 | 0.00 | 0.00 | 77 | 1014.0 |
| 20260906160524 | 65 | 326 | 0.0 | 4.0 | 0.00 | 0.00 | 0.00 | 77 | 1014.1 |
| 20260906160023 | 65 | 327 | 1.0 | 4.0 | 0.00 | 0.00 | 0.00 | 77 | 1014.0 |
| 20260906155521 | 64 | 313 | 0.0 | 4.0 | 0.00 | 0.00 | 0.00 | 77 | 1014.1 |
| 20260906155019 | 64 | 306 | 1.0 | 3.0 | 0.00 | 0.00 | 0.00 | 77 | 1014.2 |
| 20260906154518 | 64 | 342 | 0.0 | 5.0 | 0.00 | 0.00 | 0.00 | 78 | 1014.0 |
| 20260906154016 | 63 | 328 | 1.0 | 5.0 | 0.00 | 0.00 | 0.00 | 78 | 1014.1 |
| 20260906153514 | 63 | 336 | 0.0 | 7.0 | 0.00 | 0.00 | 0.00 | 77 | 1014.1 |
| 20260906153013 | 62 | 337 | 2.0 | 7.0 | 0.00 | 0.00 | 0.00 | 78 | 1014.2 |
| 20260906152511 | 62 | 337 | 3.0 | 7.0 | 0.00 | 0.00 | 0.00 | 78 | 1014.1 |
| 20260906152014 | 62 | 291 | 2.0 | 6.0 | 0.00 | 0.00 | 0.00 | 77 | 1014.1 |
| 20260906151510 | 61 | 308 | 2.0 | 4.0 | 0.00 | 0.00 | 0.00 | 78 | 1014.0 |
| 20260906151009 | 61 | 355 | 2.0 | 5.0 | 0.00 | 0.00 | 0.00 | 78 | 1013.9 |
| 20260906150505 | 60 | 81 | 0.0 | 0.0 | 0.00 | 0.00 | 0.00 | 77 | 1013.8 |
| 20260906150005 | 60 | 81 | 0.0 | 1.0 | 0.00 | 0.00 | 0.00 | 77 | 1013.7 |
| 20260906145502 | 59 | 81 | 0.0 | 1.0 | 0.00 | 0.00 | 0.00 | 77 | 1013.6 |
| 20260906145001 | 58 | 81 | 0.0 | 0.0 | 0.00 | 0.00 | 0.00 | 77 | 1013.5 |
| 20260906144600 | 58 | 81 | 0.0 | 3.0 | 0.00 | 0.00 | 0.00 | 78 | 1013.6 |
| 20260906144058 | 57 | 81 | 0.0 | 3.0 | 0.00 | 0.00 | 0.00 | 78 | 1013.6 |
| 20260906143557 | 56 | 81 | 0.0 | 0.0 | 0.00 | 0.00 | 0.00 | 79 | 1013.6 |
| 20260906143057 | 56 | 81 | 0.0 | 0.0 | 0.00 | 0.00 | 0.00 | 79 | 1013.5 |
| 20260906142553 | 55 | 81 | 0.0 | 0.0 | 0.00 | 0.00 | 0.00 | 79 | 1013.4 |
| 20260906142053 | 55 | 81 | 0.0 | 1.0 | 0.00 | 0.00 | 0.00 | 79 | 1013.5 |
| 20260906141550 | 54 | 81 | 0.0 | 1.0 | 0.00 | 0.00 | 0.00 | 80 | 1013.5 |
| 20260906141049 | 54 | 81 | 0.0 | 2.0 | 0.00 | 0.00 | 0.00 | 79 | 1013.5 |
| 20260906140549 | 54 | 81 | 0.0 | 3.0 | 0.00 | 0.00 | 0.00 | 79 | 1013.5 |
| 20260906140039 | 54 | 81 | 0.0 | 3.0 | 0.00 | 0.00 | 0.00 | 80 | 1013.4 |
| 20260906135535 | 53 | 81 | 0.0 | 3.0 | 0.00 | 0.00 | 0.00 | 80 | 1013.3 |
| 20260906135033 | 53 | 81 | 1.0 | 3.0 | 0.00 | 0.00 | 0.00 | 80 | 1013.3 |
| 20260906134533 | 53 | 81 | 0.0 | 0.0 | 0.00 | 0.00 | 0.00 | 80 | 1013.3 |
| 20260906134033 | 53 | 81 | 0.0 | 0.0 | 0.00 | 0.00 | 0.00 | 79 | 1013.4 |
| 20260906133533 | 54 | 81 | 0.0 | 0.0 | 0.00 | 0.00 | 0.00 | 79 | 1013.3 |
| 20260906133037 | 54 | 80 | 0.0 | 0.0 | 0.00 | 0.00 | 0.00 | 79 | 1013.3 |
| 20260906132532 | 54 | 80 | 0.0 | 0.0 | 0.00 | 0.00 | 0.00 | 79 | 1013.3 |
| 20260906132031 | 54 | 80 | 0.0 | 0.0 | 0.00 | 0.00 | 0.00 | 79 | 1013.3 |
| 20260906131630 | 54 | 80 | 0.0 | 0.0 | 0.00 | 0.00 | 0.00 | 79 | 1013.2 |
| 20260906131029 | 54 | 80 | 0.0 | 0.0 | 0.00 | 0.00 | 0.00 | 79 | 1013.3 |
| 20260906130529 | 54 | 80 | 0.0 | 0.0 | 0.00 | 0.00 | 0.00 | 80 | 1013.3 |
| 20260906130029 | 54 | 80 | 0.0 | 0.0 | 0.00 | 0.00 | 0.00 | 80 | 1013.3 |
| 20260906125529 | 54 | 80 | 0.0 | 1.0 | 0.00 | 0.00 | 0.00 | 80 | 1013.3 |
| 20260906125029 | 54 | 80 | 0.0 | 1.0 | 0.00 | 0.00 | 0.00 | 80 | 1013.3 |
| 20260906124528 | 54 | 80 | 0.0 | 0.0 | 0.00 | 0.00 | 0.00 | 80 | 1013.4 |
| 20260906124028 | 54 | 80 | 0.0 | 1.0 | 0.00 | 0.00 | 0.00 | 80 | 1013.4 |
| 20260906123527 | 54 | 80 | 0.0 | 0.0 | 0.00 | 0.00 | 0.00 | 80 | 1013.3 |
| 20260906123033 | 54 | 80 | 0.0 | 0.0 | 0.00 | 0.00 | 0.00 | 80 | 1013.3 |
| 20260906122531 | 54 | 80 | 0.0 | 2.0 | 0.00 | 0.00 | 0.00 | 80 | 1013.3 |
| 20260906122033 | 54 | 80 | 0.0 | 2.0 | 0.00 | 0.00 | 0.00 | 80 | 1013.3 |
| 20260906121529 | 54 | 80 | 0.0 | 0.0 | 0.00 | 0.00 | 0.00 | 80 | 1013.5 |
| 20260906121026 | 54 | 80 | 0.0 | 0.0 | 0.00 | 0.00 | 0.00 | 79 | 1013.5 |
| 20260906120525 | 54 | 80 | 0.0 | 0.0 | 0.00 | 0.00 | 0.00 | 79 | 1013.4 |
| 20260906120025 | 54 | 80 | 0.0 | 0.0 | 0.00 | 0.00 | 0.00 | 80 | 1013.4 |
| 20260906115527 | 54 | 80 | 0.0 | 0.0 | 0.00 | 0.00 | 0.00 | 80 | 1013.4 |
| 20260906115024 | 54 | 80 | 0.0 | 0.0 | 0.00 | 0.00 | 0.00 | 80 | 1013.4 |
| 20260906114536 | 54 | 80 | 0.0 | 0.0 | 0.00 | 0.00 | 0.00 | 80 | 1013.5 |
| 20260906114024 | 54 | 80 | 0.0 | 0.0 | 0.00 | 0.00 | 0.00 | 80 | 1013.4 |
| 20260906113524 | 54 | 80 | 0.0 | 0.0 | 0.00 | 0.00 | 0.00 | 80 | 1013.4 |
| 20260906113026 | 54 | 80 | 0.0 | 0.0 | 0.00 | 0.00 | 0.00 | 80 | 1013.4 |
| 20260906112524 | 55 | 80 | 0.0 | 1.0 | 0.00 | 0.00 | 0.00 | 80 | 1013.4 |
| 20260906112024 | 55 | 80 | 0.0 | 0.0 | 0.00 | 0.00 | 0.00 | 79 | 1013.3 |
| 20260906111528 | 55 | 80 | 0.0 | 0.0 | 0.00 | 0.00 | 0.00 | 80 | 1013.4 |
| 20260906111022 | 55 | 80 | 0.0 | 0.0 | 0.00 | 0.00 | 0.00 | 80 | 1013.4 |
| 20260906110522 | 55 | 80 | 0.0 | 0.0 | 0.00 | 0.00 | 0.00 | 80 | 1013.4 |
| 20260906110021 | 55 | 80 | 0.0 | 0.0 | 0.00 | 0.00 | 0.00 | 79 | 1013.3 |
| 20260906105523 | 55 | 80 | 0.0 | 0.0 | 0.00 | 0.00 | 0.00 | 79 | 1013.4 |
| 20260906105021 | 55 | 80 | 0.0 | 0.0 | 0.00 | 0.00 | 0.00 | 79 | 1013.4 |
| 20260906104522 | 55 | 80 | 0.0 | 0.0 | 0.00 | 0.00 | 0.00 | 80 | 1013.4 |
| 20260906104022 | 55 | 80 | 0.0 | 0.0 | 0.00 | 0.00 | 0.00 | 79 | 1013.5 |
| 20260906103518 | 55 | 80 | 0.0 | 0.0 | 0.00 | 0.00 | 0.00 | 80 | 1013.4 |
| 20260906103018 | 55 | 80 | 0.0 | 0.0 | 0.00 | 0.00 | 0.00 | 79 | 1013.5 |
| 20260906102518 | 56 | 80 | 0.0 | 0.0 | 0.00 | 0.00 | 0.00 | 79 | 1013.4 |
| 20260906102017 | 56 | 80 | 0.0 | 0.0 | 0.00 | 0.00 | 0.00 | 79 | 1013.4 |
| 20260906101516 | 56 | 80 | 0.0 | 0.0 | 0.00 | 0.00 | 0.00 | 79 | 1013.4 |
| 20260906101018 | 56 | 80 | 0.0 | 0.0 | 0.00 | 0.00 | 0.00 | 80 | 1013.4 |
| 20260906100518 | 56 | 80 | 0.0 | 1.0 | 0.00 | 0.00 | 0.00 | 80 | 1013.4 |
| 20260906100018 | 56 | 80 | 0.0 | 1.0 | 0.00 | 0.00 | 0.00 | 80 | 1013.3 |
| 20260906095518 | 56 | 80 | 0.0 | 1.0 | 0.00 | 0.00 | 0.00 | 80 | 1013.5 |
| 20260906095015 | 56 | 80 | 0.0 | 1.0 | 0.00 | 0.00 | 0.00 | 80 | 1013.5 |
| 20260906094512 | 56 | 80 | 0.0 | 0.0 | 0.00 | 0.00 | 0.00 | 80 | 1013.6 |
| 20260906094012 | 56 | 80 | 0.0 | 0.0 | 0.00 | 0.00 | 0.00 | 80 | 1013.6 |
| 20260906093512 | 56 | 80 | 0.0 | 1.0 | 0.00 | 0.00 | 0.00 | 80 | 1013.6 |
| 20260906093011 | 56 | 80 | 0.0 | 1.0 | 0.00 | 0.00 | 0.00 | 80 | 1013.6 |
| 20260906092511 | 56 | 80 | 0.0 | 2.0 | 0.00 | 0.00 | 0.00 | 80 | 1013.7 |
| 20260906092011 | 56 | 80 | 0.0 | 2.0 | 0.00 | 0.00 | 0.00 | 80 | 1013.7 |
| 20260906091515 | 56 | 80 | 0.0 | 0.0 | 0.00 | 0.00 | 0.00 | 80 | 1013.7 |
| 20260906091009 | 56 | 80 | 0.0 | 0.0 | 0.00 | 0.00 | 0.00 | 80 | 1013.7 |
| 20260906090508 | 57 | 80 | 0.0 | 0.0 | 0.00 | 0.00 | 0.00 | 80 | 1013.9 |
| 20260906090008 | 57 | 80 | 0.0 | 0.0 | 0.00 | 0.00 | 0.00 | 80 | 1013.9 |
| 20260906085506 | 57 | 80 | 0.0 | 0.0 | 0.00 | 0.00 | 0.00 | 80 | 1014.0 |
| 20260906085007 | 57 | 80 | 0.0 | 0.0 | 0.00 | 0.00 | 0.00 | 80 | 1014.0 |
| 20260906084506 | 57 | 80 | 0.0 | 0.0 | 0.00 | 0.00 | 0.00 | 80 | 1014.0 |
| 20260906084005 | 57 | 80 | 0.0 | 0.0 | 0.00 | 0.00 | 0.00 | 80 | 1014.0 |
| 20260906083505 | 57 | 80 | 0.0 | 0.0 | 0.00 | 0.00 | 0.00 | 80 | 1014.0 |
| 20260906083004 | 57 | 80 | 0.0 | 0.0 | 0.00 | 0.00 | 0.00 | 80 | 1014.1 |
| 20260906082503 | 57 | 80 | 0.0 | 0.0 | 0.00 | 0.00 | 0.00 | 80 | 1014.1 |
| 20260906082003 | 57 | 80 | 0.0 | 0.0 | 0.00 | 0.00 | 0.00 | 80 | 1014.1 |
| 20260906081504 | 58 | 80 | 0.0 | 0.0 | 0.00 | 0.00 | 0.00 | 80 | 1014.1 |
| 20260906081001 | 58 | 80 | 0.0 | 0.0 | 0.00 | 0.00 | 0.00 | 80 | 1014.2 |
| 20260906080501 | 58 | 80 | 0.0 | 0.0 | 0.00 | 0.00 | 0.00 | 80 | 1014.1 |
| 20260906080002 | 58 | 80 | 0.0 | 0.0 | 0.00 | 0.00 | 0.00 | 80 | 1014.1 |
| 20260906075600 | 58 | 80 | 0.0 | 0.0 | 0.00 | 0.00 | 0.00 | 80 | 1014.2 |
| 20260906075000 | 58 | 80 | 0.0 | 0.0 | 0.00 | 0.00 | 0.00 | 80 | 1014.1 |
| 20260906074600 | 58 | 80 | 0.0 | 0.0 | 0.00 | 0.00 | 0.00 | 80 | 1014.1 |
| 20260906074059 | 58 | 80 | 0.0 | 0.0 | 0.00 | 0.00 | 0.00 | 80 | 1014.1 |
| 20260906073600 | 58 | 80 | 0.0 | 0.0 | 0.00 | 0.00 | 0.00 | 80 | 1014.1 |
| 20260906073100 | 58 | 80 | 0.0 | 0.0 | 0.00 | 0.00 | 0.00 | 80 | 1014.1 |
| 20260906072559 | 58 | 80 | 0.0 | 0.0 | 0.00 | 0.00 | 0.00 | 80 | 1014.1 |
| 20260906072057 | 58 | 80 | 0.0 | 0.0 | 0.00 | 0.00 | 0.00 | 80 | 1014.0 |
| 20260906071603 | 58 | 80 | 0.0 | 0.0 | 0.00 | 0.00 | 0.00 | 80 | 1014.1 |
| 20260906071055 | 59 | 80 | 0.0 | 0.0 | 0.00 | 0.00 | 0.00 | 80 | 1014.2 |
| 20260906070554 | 59 | 80 | 0.0 | 0.0 | 0.00 | 0.00 | 0.00 | 80 | 1014.2 |
| 20260906070053 | 59 | 79 | 0.0 | 0.0 | 0.00 | 0.00 | 0.00 | 79 | 1014.1 |
| 20260906065555 | 59 | 80 | 0.0 | 0.0 | 0.00 | 0.00 | 0.00 | 80 | 1014.1 |
| 20260906065053 | 59 | 80 | 0.0 | 0.0 | 0.00 | 0.00 | 0.00 | 80 | 1014.1 |
| 20260906064553 | 59 | 80 | 0.0 | 0.0 | 0.00 | 0.00 | 0.00 | 80 | 1013.9 |
| 20260906064052 | 60 | 80 | 0.0 | 0.0 | 0.00 | 0.00 | 0.00 | 80 | 1014.0 |
| 20260906063554 | 60 | 80 | 0.0 | 0.0 | 0.00 | 0.00 | 0.00 | 79 | 1014.1 |
| 20260906063052 | 60 | 80 | 0.0 | 0.0 | 0.00 | 0.00 | 0.00 | 80 | 1014.0 |
| 20260906062555 | 60 | 80 | 0.0 | 0.0 | 0.00 | 0.00 | 0.00 | 80 | 1014.0 |
| 20260906062052 | 60 | 80 | 0.0 | 0.0 | 0.00 | 0.00 | 0.00 | 80 | 1013.9 |
| 20260906061552 | 60 | 80 | 0.0 | 3.0 | 0.00 | 0.00 | 0.00 | 80 | 1014.0 |
| 20260906061051 | 60 | 80 | 0.0 | 3.0 | 0.00 | 0.00 | 0.00 | 80 | 1014.0 |
| 20260906060551 | 60 | 80 | 0.0 | 3.0 | 0.00 | 0.00 | 0.00 | 80 | 1014.1 |
| 20260906060125 | 60 | 80 | 0.0 | 3.0 | 0.00 | 0.00 | 0.00 | 80 | 1014.0 |
| 20260906055551 | 60 | 80 | 1.0 | 3.0 | 0.00 | 0.00 | 0.00 | 80 | 1014.1 |
| 20260906055052 | 60 | 74 | 1.0 | 4.0 | 0.00 | 0.00 | 0.00 | 80 | 1014.1 |
| 20260906054553 | 60 | 74 | 0.0 | 4.0 | 0.00 | 0.00 | 0.00 | 80 | 1014.1 |
| 20260906054053 | 61 | 68 | 1.0 | 3.0 | 0.00 | 0.00 | 0.00 | 80 | 1014.2 |
| 20260906053550 | 61 | 31 | 0.0 | 1.0 | 0.00 | 0.00 | 0.00 | 80 | 1014.2 |
| 20260906053050 | 61 | 31 | 0.0 | 0.0 | 0.00 | 0.00 | 0.00 | 80 | 1014.1 |
| 20260906052551 | 61 | 31 | 0.0 | 0.0 | 0.00 | 0.00 | 0.00 | 81 | 1014.2 |
| 20260906052051 | 61 | 31 | 0.0 | 0.0 | 0.00 | 0.00 | 0.00 | 80 | 1014.3 |
| 20260906051550 | 61 | 31 | 0.0 | 2.0 | 0.00 | 0.00 | 0.00 | 80 | 1014.2 |
| 20260906051049 | 61 | 31 | 0.0 | 3.0 | 0.00 | 0.00 | 0.00 | 80 | 1014.1 |
| 20260906050549 | 61 | 7 | 1.0 | 3.0 | 0.00 | 0.00 | 0.00 | 80 | 1014.2 |
| 20260906050057 | 62 | 273 | 0.0 | 0.0 | 0.00 | 0.00 | 0.00 | 80 | 1014.3 |
| 20260906045547 | 62 | 273 | 0.0 | 0.0 | 0.00 | 0.00 | 0.00 | 80 | 1014.3 |
| 20260906045047 | 62 | 273 | 0.0 | 0.0 | 0.00 | 0.00 | 0.00 | 80 | 1014.3 |
| 20260906044548 | 62 | 273 | 0.0 | 0.0 | 0.00 | 0.00 | 0.00 | 80 | 1014.4 |
| 20260906044048 | 62 | 273 | 0.0 | 0.0 | 0.00 | 0.00 | 0.00 | 80 | 1014.3 |
| 20260906043546 | 62 | 273 | 0.0 | 0.0 | 0.00 | 0.00 | 0.00 | 80 | 1014.3 |
| 20260906043045 | 62 | 273 | 0.0 | 0.0 | 0.00 | 0.00 | 0.00 | 80 | 1014.3 |
| 20260906042546 | 62 | 273 | 0.0 | 0.0 | 0.00 | 0.00 | 0.00 | 80 | 1014.3 |
| 20260906042045 | 63 | 273 | 0.0 | 0.0 | 0.00 | 0.00 | 0.00 | 80 | 1014.2 |
| 20260906041546 | 63 | 273 | 0.0 | 0.0 | 0.00 | 0.00 | 0.00 | 80 | 1014.2 |
| 20260906041045 | 63 | 273 | 0.0 | 0.0 | 0.00 | 0.00 | 0.00 | 80 | 1014.1 |
| 20260906040544 | 63 | 273 | 0.0 | 0.0 | 0.00 | 0.00 | 0.00 | 80 | 1014.1 |
| 20260906040040 | 63 | 273 | 0.0 | 0.0 | 0.00 | 0.00 | 0.00 | 80 | 1014.0 |
| 20260906035539 | 63 | 273 | 0.0 | 2.0 | 0.00 | 0.00 | 0.00 | 80 | 1014.1 |
| 20260906035037 | 63 | 273 | 0.0 | 2.0 | 0.00 | 0.00 | 0.00 | 80 | 1014.0 |
| 20260906034541 | 64 | 273 | 0.0 | 0.0 | 0.00 | 0.00 | 0.00 | 80 | 1014.0 |
| 20260906034037 | 64 | 273 | 0.0 | 0.0 | 0.00 | 0.00 | 0.00 | 80 | 1013.9 |
| 20260906033536 | 64 | 273 | 0.0 | 1.0 | 0.00 | 0.00 | 0.00 | 80 | 1013.8 |
| 20260906033037 | 64 | 273 | 0.0 | 1.0 | 0.00 | 0.00 | 0.00 | 81 | 1013.7 |
| 20260906032536 | 64 | 273 | 0.0 | 1.0 | 0.00 | 0.00 | 0.00 | 81 | 1013.6 |
| 20260906032036 | 64 | 273 | 0.0 | 2.0 | 0.00 | 0.00 | 0.00 | 81 | 1013.6 |
| 20260906031604 | 65 | 273 | 0.0 | 2.0 | 0.00 | 0.00 | 0.00 | 82 | 1013.5 |
| 20260906031036 | 65 | 274 | 0.0 | 1.0 | 0.00 | 0.00 | 0.00 | 82 | 1013.4 |
| 20260906030536 | 65 | 274 | 0.0 | 1.0 | 0.00 | 0.00 | 0.00 | 82 | 1013.3 |
| 20260906030028 | 65 | 274 | 0.0 | 3.0 | 0.00 | 0.00 | 0.00 | 83 | 1013.3 |
| 20260906025531 | 65 | 274 | 0.0 | 3.0 | 0.00 | 0.00 | 0.00 | 83 | 1013.3 |
| 20260906025128 | 66 | 274 | 0.0 | 4.0 | 0.00 | 0.00 | 0.00 | 84 | 1013.2 |
| 20260906024532 | 66 | 277 | 0.0 | 6.0 | 0.00 | 0.00 | 0.00 | 84 | 1013.2 |
| 20260906024027 | 66 | 277 | 0.0 | 6.0 | 0.00 | 0.00 | 0.00 | 85 | 1013.1 |
| 20260906023527 | 66 | 301 | 0.0 | 4.0 | 0.00 | 0.00 | 0.00 | 86 | 1013.1 |
| 20260906023026 | 67 | 302 | 0.0 | 4.0 | 0.00 | 0.00 | 0.00 | 87 | 1013.1 |
| 20260906022526 | 67 | 306 | 1.0 | 4.0 | 0.00 | 0.00 | 0.00 | 88 | 1013.1 |
| 20260906022026 | 67 | 287 | 1.0 | 4.0 | 0.00 | 0.00 | 0.00 | 89 | 1013.1 |
| 20260906021525 | 67 | 271 | 0.0 | 9.0 | 0.00 | 0.00 | 0.00 | 89 | 1013.1 |
| 20260906021025 | 67 | 271 | 2.0 | 5.0 | 0.00 | 0.00 | 0.00 | 89 | 1013.2 |
| 20260906020524 | 68 | 231 | 0.0 | 7.0 | 0.00 | 0.00 | 0.00 | 89 | 1013.1 |
| 20260906020012 | 68 | 299 | 2.0 | 7.0 | 0.00 | 0.00 | 0.00 | 89 | 1013.1 |
| 20260906015511 | 68 | 275 | 2.0 | 6.0 | 0.00 | 0.00 | 0.00 | 90 | 1013.0 |
| 20260906015011 | 68 | 284 | 2.0 | 6.0 | 0.00 | 0.00 | 0.00 | 90 | 1013.0 |
| 20260906014514 | 68 | 270 | 0.0 | 6.0 | 0.00 | 0.00 | 0.00 | 89 | 1013.0 |
| 20260906014014 | 68 | 273 | 1.0 | 6.0 | 0.00 | 0.00 | 0.00 | 89 | 1013.0 |
| 20260906013511 | 69 | 247 | 1.0 | 5.0 | 0.00 | 0.00 | 0.00 | 90 | 1013.1 |
| 20260906013011 | 69 | 285 | 1.0 | 9.0 | 0.00 | 0.00 | 0.00 | 90 | 1013.1 |
| 20260906012510 | 69 | 276 | 3.0 | 9.0 | 0.00 | 0.00 | 0.00 | 90 | 1013.1 |
| 20260906012013 | 69 | 261 | 2.0 | 6.0 | 0.00 | 0.00 | 0.00 | 90 | 1013.2 |
| 20260906011510 | 70 | 264 | 4.0 | 9.0 | 0.00 | 0.00 | 0.00 | 90 | 1013.1 |
| 20260906011009 | 70 | 263 | 5.0 | 9.0 | 0.00 | 0.00 | 0.00 | 90 | 1013.0 |
| 20260906010509 | 70 | 298 | 2.0 | 9.0 | 0.00 | 0.00 | 0.00 | 90 | 1013.0 |
| 20260906010011 | 71 | 281 | 3.0 | 9.0 | 0.00 | 0.00 | 0.00 | 90 | 1013.0 |
| 20260906005509 | 71 | 285 | 4.0 | 9.0 | 0.00 | 0.00 | 0.00 | 90 | 1012.9 |
| 20260906005009 | 71 | 291 | 5.0 | 9.0 | 0.00 | 0.00 | 0.00 | 90 | 1013.0 |
| 20260906004509 | 71 | 294 | 4.0 | 9.0 | 0.00 | 0.00 | 0.00 | 89 | 1013.0 |
| 20260906004008 | 71 | 269 | 3.0 | 10.0 | 0.00 | 0.00 | 0.00 | 89 | 1012.9 |
| 20260906003508 | 71 | 287 | 5.0 | 10.0 | 0.00 | 0.00 | 0.00 | 89 | 1013.0 |
| 20260906003008 | 72 | 289 | 4.0 | 9.0 | 0.00 | 0.00 | 0.00 | 89 | 1013.2 |
| 20260906002508 | 72 | 273 | 2.0 | 10.0 | 0.00 | 0.00 | 0.00 | 89 | 1013.2 |
| 20260906002007 | 72 | 299 | 5.0 | 10.0 | 0.00 | 0.00 | 0.00 | 89 | 1013.2 |
| 20260906001506 | 73 | 237 | 4.0 | 11.0 | 0.00 | 0.00 | 0.00 | 89 | 1013.2 |
| 20260906001008 | 73 | 295 | 4.0 | 11.0 | 0.00 | 0.00 | 0.00 | 88 | 1013.2 |
| 20260906000505 | 73 | 269 | 5.0 | 10.0 | 0.00 | 0.00 | 0.00 | 88 | 1013.2 |
| 20260906000005 | 74 | 271 | 6.0 | 9.0 | 0.00 | 0.00 | 0.00 | 87 | 1013.2 |
| 20260905235504 | 75 | 254 | 3.0 | 9.0 | 0.00 | 0.00 | 0.00 | 87 | 1013.2 |
| 20260905235006 | 75 | 275 | 2.0 | 8.0 | 0.00 | 0.00 | 0.00 | 87 | 1013.0 |
| 20260905234506 | 75 | 329 | 2.0 | 10.0 | 0.00 | 0.00 | 0.00 | 87 | 1013.1 |
| 20260905234004 | 76 | 315 | 5.0 | 10.0 | 0.00 | 0.00 | 0.00 | 86 | 1013.1 |
| 20260905233504 | 76 | 289 | 2.0 | 11.0 | 0.00 | 0.00 | 0.00 | 86 | 1013.1 |
| 20260905233003 | 76 | 269 | 3.0 | 11.0 | 0.00 | 0.00 | 0.00 | 85 | 1013.0 |
| 20260905232503 | 76 | 296 | 3.0 | 10.0 | 0.00 | 0.00 | 0.00 | 85 | 1013.0 |
| 20260905232003 | 76 | 293 | 4.0 | 10.0 | 0.00 | 0.00 | 0.00 | 85 | 1013.0 |
| 20260905231504 | 76 | 278 | 3.0 | 9.0 | 0.00 | 0.00 | 0.00 | 85 | 1013.1 |
| 20260905231002 | 76 | 286 | 3.0 | 9.0 | 0.00 | 0.00 | 0.00 | 85 | 1013.0 |
| 20260905230501 | 76 | 314 | 5.0 | 9.0 | 0.00 | 0.00 | 0.00 | 85 | 1013.1 |
| 20260905230107 | 76 | 306 | 3.0 | 10.0 | 0.00 | 0.00 | 0.00 | 85 | 1013.2 |
| 20260905225600 | 77 | 292 | 6.0 | 11.0 | 0.00 | 0.00 | 0.00 | 84 | 1013.3 |
| 20260905225500 | 77 | 296 | 4.0 | 11.0 | 0.00 | 0.00 | 0.00 | 85 | 1013.3 |
| 20260905225100 | 77 | 305 | 5.0 | 11.0 | 0.00 | 0.00 | 0.00 | 85 | 1013.2 |
| 20260905224701 | 77 | 298 | 5.0 | 11.0 | 0.00 | 0.00 | 0.00 | 85 | 1013.4 |
| 20260905224059 | 77 | 303 | 7.0 | 11.0 | 0.00 | 0.00 | 0.00 | 85 | 1013.4 |
| 20260905223559 | 77 | 290 | 2.0 | 9.0 | 0.00 | 0.00 | 0.00 | 85 | 1013.3 |
| 20260905223059 | 77 | 321 | 3.0 | 10.0 | 0.00 | 0.00 | 0.00 | 85 | 1013.4 |
| 20260905222559 | 77 | 312 | 3.0 | 11.0 | 0.00 | 0.00 | 0.00 | 85 | 1013.3 |
| 20260905222100 | 77 | 316 | 1.0 | 10.0 | 0.00 | 0.00 | 0.00 | 85 | 1013.4 |
| 20260905221614 | 77 | 330 | 4.0 | 12.0 | 0.00 | 0.00 | 0.00 | 85 | 1013.5 |
| 20260905221058 | 77 | 296 | 4.0 | 12.0 | 0.00 | 0.00 | 0.00 | 85 | 1013.5 |
| 20260905220557 | 78 | 279 | 8.0 | 12.0 | 0.00 | 0.00 | 0.00 | 85 | 1013.5 |
| 20260905220048 | 78 | 294 | 6.0 | 12.0 | 0.00 | 0.00 | 0.00 | 85 | 1013.5 |
| 20260905215548 | 77 | 312 | 3.0 | 10.0 | 0.00 | 0.00 | 0.00 | 85 | 1013.5 |
| 20260905215049 | 77 | 300 | 2.0 | 9.0 | 0.00 | 0.00 | 0.00 | 85 | 1013.5 |
| 20260905214553 | 77 | 285 | 6.0 | 11.0 | 0.00 | 0.00 | 0.00 | 85 | 1013.6 |
| 20260905214046 | 77 | 273 | 6.0 | 12.0 | 0.00 | 0.00 | 0.00 | 85 | 1013.6 |
| 20260905213545 | 77 | 312 | 6.0 | 12.0 | 0.00 | 0.00 | 0.00 | 85 | 1013.6 |
| 20260905213045 | 78 | 281 | 4.0 | 11.0 | 0.00 | 0.00 | 0.00 | 84 | 1013.6 |
| 20260905212548 | 78 | 272 | 5.0 | 11.0 | 0.00 | 0.00 | 0.00 | 84 | 1013.7 |